Regional Weather Roundup
Issued by NWS

Home | Current Version | Previous Version | Graphics & Text | Print | Product List | Glossary On
Versions: 1 2 3 4 5 6 7 8 9 10 11 12 13 14 15 16 17 18 19 20 21 22 23 24 25 26 27 28 29 30 31 32 33 34 35 36 37 38 39 40 41 42 43 44 45 46 47 48 49 50
000
ASUS43 KMKX 251421
RWRWI

WISCONSIN REGIONAL WEATHER ROUNDUP
NATIONAL WEATHER SERVICE MILWAUKEE/SULLIVAN WI
900 AM CDT MON MAY 25 2015

NOTE: "FAIR" INDICATES FEW OR NO CLOUDS BELOW 12,000 FEET WITH NO
SIGNIFICANT WEATHER AND/OR OBSTRUCTIONS TO VISIBILITY.

WIZ001-002-006>008-014>016-023>028-251500-
NORTHWEST WISCONSIN

CITY           SKY/WX    TMP DP  RH WIND       PRES   REMARKS
SUPERIOR ARPT  DRIZZLE   48  48 100 E13       29.72S
ASHLAND        CLOUDY    51  51 100 NE9       29.71F
HAYWARD        CLOUDY    59  56  89 NE3       29.69S FOG
SIREN          CLOUDY    58  57  97 E5        29.68F
CUMBERLAND     LGT RAIN  55  54  94 SE6       29.68F
RICE LAKE      LGT RAIN  58  56  95 SE5       29.70S
CHETEK         RAIN      58  58 100 SE3       29.68F
LADYSMITH      DRZL/FOG  60  59  97 CALM      29.70F VSB 1
EAU CLAIRE     CLOUDY    60  59  96 SW7       29.68S FOG
MENOMONIE      DRIZZLE   59  59  99 S3        29.68F
NEW RICHMOND   DRIZZLE   58  58 100 S6        29.68R
OSCEOLA        CLOUDY    58  58 100 SE3       29.70R FOG
$$

WIZ003>005-009-010-017-018-251500-
NORTH CENTRAL WISCONSIN

CITY           SKY/WX    TMP DP  RH WIND       PRES   REMARKS
MANITOWISH WTR CLOUDY    57  57 100 SE5       29.71S FOG
ARBOR VITAE    FOG       59  58  96 SE8       29.71F VSB 1
WOODRUFF       FOG       59  58  96 SE8       29.71F VSB 1
RHINELANDER    LGT RAIN  58  57  97 SE8       29.73F FOG
EAGLE RIVER    LGT RAIN  57  57 100 SE7       29.73F
LAND O LAKES   DRIZZLE   57  57 100 SE7       29.74F
PHILLIPS       DRIZZLE   59  59 100 S5        29.69F
TOMAHAWK       LGT RAIN  59  58  97 SE6       29.72F
MEDFORD        DRIZZLE   60  60 100 S8        29.70F
MERRILL        RAIN      60  60 100 SE5       29.72F
$$

WIZ029-030-035-036-043>047-251500-
CENTRAL WISCONSIN

CITY           SKY/WX    TMP DP  RH WIND       PRES   REMARKS
WAUSAU         LGT RAIN  60  60 100 E5        29.70F FOG
MOSINEE        LGT RAIN  57  57 100 SE3       29.72F
MARSHFIELD     LGT RAIN  64  62  93 S7        29.71S FOG
STEVENS POINT  LGT RAIN  60  60  99 CALM      29.71F
WAUPACA        DRIZZLE   67  66  96 SE6       29.71F
WAUTOMA        LGT RAIN  66  66 100 W8        29.72R VSB 1
WISC RAPIDS    CLOUDY    65  62  90 S5        29.72F
CAMP DOUGLAS   CLOUDY    66  66 100 SW10      29.71S
$$

WIZ011>013-019>022-031-037>040-048>050-251500-
NORTHEAST WISCONSIN

CITY           SKY/WX    TMP DP  RH WIND       PRES   REMARKS
ANTIGO         LGT RAIN  56  56 100 SE7       29.74S
SHAWANO        RAIN      60  59  96 E6        29.73F
OCONTO         CLOUDY    57  57 100 E3        29.75F
STURGEON BAY   CLOUDY    57  52  82 S10       29.78F
GREEN BAY      CLOUDY    66  63  90 S13       29.73F
MANITOWOC      CLOUDY    54  54 100 SE10      29.77F FOG
APPLETON       DRIZZLE   64  64 100 SE10      29.72F FOG
CLINTONVILLE   RAIN      63  61  94 SE6       29.71F
OSHKOSH        CLOUDY    67  64  90 S12       29.71F FOG
$$

WIZ032>034-041-042-053>061-251500-
SOUTHWEST WISCONSIN

CITY           SKY/WX    TMP DP  RH WIND       PRES   REMARKS
LA CROSSE      CLOUDY    67  63  87 S5        29.72R
SPARTA         CLOUDY    66  64  93 SW3       29.73R
VIROQUA        CLOUDY    64  64 100 SW13G18   29.75S
BOSCOBEL       CLOUDY    67  63  87 SW10      29.76R
PRAIRIE DU CHI DRIZZLE   65  62  90 S3        29.77R
PLATTEVILLE    CLOUDY    65  64  95 SW14      29.80R
$$

WIZ056-057-062-063-064-067-068-251500-
SOUTH CENTRAL WISCONSIN

CITY           SKY/WX    TMP DP  RH WIND       PRES   REMARKS
REEDSBURG      CLOUDY    65  63  94 SW13      29.74R
BARABOO/DELLS  CLOUDY    65  63  93 SW9       29.74R
LONE ROCK      CLOUDY    67  63  87 SW10      29.76R
MINERAL POINT  CLOUDY    64  63  94 SW9       29.79R
MADISON        CLOUDY    68  63  84 SW10      29.76R
MIDDLETON      CLOUDY    69  65  88 SW13G18   29.77R
WATERTOWN      CLOUDY    68  68 100 SW15G21   29.77R
MONROE         CLOUDY    66  63  88 SW16      29.80R
JANESVILLE     CLOUDY    66  64  94 SW12G20   29.79R
$$

WIZ051-052-058>065-066-070>072-251500-
SOUTHEAST WISCONSIN

CITY           SKY/WX    TMP DP  RH WIND       PRES   REMARKS
MILWAUKEE      LGT RAIN  68  63  84 S15G22    29.79S
WAUKESHA       LGT RAIN  64  63  94 S12       29.80S FOG
MILWAUKEE/TIMM DRIZZLE   66  63  88 S13       29.79S
RACINE         CLOUDY    70  63  78 SW18G25   29.82S
BURLINGTON     RAIN      65  64  94 S17G23    29.80S
KENOSHA        CLOUDY    71  64  78 SW18G30   29.80F
FOND DU LAC    CLOUDY    68  63  84 S16G25    29.72F
SHEBOYGAN      CLOUDY    62  59  90 S10       29.77F
WEST BEND      CLOUDY    64  63  94 S7        29.77S FOG
JUNEAU         CLOUDY    67  64  89 S22       29.76R
$$

LSZ147-162-251500-
LAKE SUPERIOR

STATION/POSITION TIME  TEMP    WIND        PRES    WAVE
                       AIR SEA DIR/SP/G            HT/PER
                 (UTC) (F)     (DEG/KT/KT) (MB)    (FT/S)
W MID LAKE BUOY  1350   41 36   40/ 16/ 19 1084.0    2/ 3
DEVILS ISLAND    1400   44      40/ 26/ 29 1068.0F
PORT WING        1340   47      40/ 17/ 20 1064.0F
SAXON HARBOR     1340   50      60/  5/  7 1058.0F
$$

LMZ867-665-643>646-251500-
LAKE MICHIGAN

STATION/POSITION TIME  TEMP    WIND        PRES    WAVE
                       AIR SEA DIR/SP/G            HT/PER
                 (UTC) (F)     (DEG/KT/KT) (MB)    (FT/S)
CHAMBERS ISLAND  1300   54      90/  2/  5   N/A
N MID LAKE BUOY  1350   45 36  160/  6/  8   N/A     1/ 3
NORTHPORT PIER   1300   49     140/  8/  9   N/A
SISTER BAY       1303   52     130/  8/ 11   N/A
KEWAUNEE LAKESHO 1300   46     170/  8/ 10 1084.0F
SHEBOYGAN LAKESH 1400   47     170/ 15/ 17 1087.0
PORT WASHINGTON  1340   50     170/  3/  6   N/A
ATWATER BUOY     1400   52 46  170/ 12/ 14   N/A
MILWAUKEE LAKESH 1400   54     150/ 12/ 14   N/A
S MID LAKE BUOY  1350   47 38  180/ 14/ 14   N/A     2/ 4
KENOSHA   LAKESH 1400   72     190/ 17/ 27   N/A
$$

TC  - TEMPERATURE IN CELSIUS
VSB - VISIBILITY IN STATUTE MILES
WCI - WIND CHILL INDEX
HX  - HEAT INDEX



USA.gov is the U.S. government's official web portal to all federal, state and local government web resources and services.